TimeCST,TemperatureF,Dew PointF,Humidity,Sea Level PressureIn,VisibilityMPH,Wind Direction,Wind SpeedMPH,Gust SpeedMPH,PrecipitationIn,Events,Conditions,WindDirDegrees,DateUTC
12:15 AM,36.0,30.9,82,30.42,10.0,Calm,Calm,-,N/A,,Clear,0,2012-11-16 06:15:00
12:35 AM,35.6,30.9,83,30.43,10.0,Calm,Calm,-,N/A,,Clear,0,2012-11-16 06:35:00
12:55 AM,36.0,31.1,82,30.43,10.0,North,9.2,-,N/A,,Clear,10,2012-11-16 06:55:00
1:15 AM,34.2,30.6,87,30.43,10.0,NNE,9.2,-,N/A,,Clear,20,2012-11-16 07:15:00
1:35 AM,33.8,30.0,86,30.43,10.0,NNE,6.9,-,N/A,,Clear,20,2012-11-16 07:35:00
1:55 AM,33.4,30.0,87,30.43,10.0,Calm,Calm,-,N/A,,Clear,0,2012-11-16 07:55:00
2:15 AM,32.7,29.5,88,30.43,10.0,Calm,Calm,-,N/A,,Clear,0,2012-11-16 08:15:00
2:35 AM,32.4,29.3,88,30.44,10.0,Calm,Calm,-,N/A,,Clear,0,2012-11-16 08:35:00
2:55 AM,32.9,29.7,88,30.44,10.0,NNE,8.1,-,N/A,,Clear,20,2012-11-16 08:55:00
3:15 AM,32.7,29.5,88,30.44,10.0,NNE,5.8,-,N/A,,Clear,20,2012-11-16 09:15:00
3:35 AM,32.0,29.1,89,30.44,10.0,Calm,Calm,-,N/A,,Clear,0,2012-11-16 09:35:00
3:55 AM,31.1,28.2,89,30.43,10.0,Calm,Calm,-,N/A,,Clear,0,2012-11-16 09:55:00
4:15 AM,30.9,27.9,88,30.43,10.0,NNE,6.9,-,N/A,,Clear,20,2012-11-16 10:15:00
4:35 AM,31.1,28.0,88,30.43,10.0,Calm,Calm,-,N/A,,Clear,0,2012-11-16 10:35:00
4:55 AM,30.9,27.5,87,30.43,10.0,Calm,Calm,-,N/A,,Clear,0,2012-11-16 10:55:00
5:15 AM,29.8,27.0,89,30.43,10.0,Calm,Calm,-,N/A,,Clear,0,2012-11-16 11:15:00
5:35 AM,29.8,26.8,88,30.43,10.0,Calm,Calm,-,N/A,,Clear,0,2012-11-16 11:35:00
5:55 AM,29.1,27.0,92,30.43,10.0,Calm,Calm,-,N/A,,Clear,0,2012-11-16 11:55:00
6:15 AM,28.9,26.6,91,30.43,10.0,Calm,Calm,-,N/A,,Clear,0,2012-11-16 12:15:00
6:35 AM,28.2,26.8,94,30.43,10.0,Calm,Calm,-,N/A,,Clear,0,2012-11-16 12:35:00
6:55 AM,28.2,26.6,94,30.43,10.0,Calm,Calm,-,N/A,,Clear,0,2012-11-16 12:55:00
7:15 AM,28.4,26.8,94,30.43,10.0,Calm,Calm,-,N/A,,Clear,0,2012-11-16 13:15:00
7:35 AM,28.9,27.0,92,30.44,10.0,Calm,Calm,-,N/A,,Clear,0,2012-11-16 13:35:00
7:55 AM,29.3,27.1,92,30.44,10.0,Calm,Calm,-,N/A,,Clear,0,2012-11-16 13:55:00
8:15 AM,30.9,28.4,90,30.45,10.0,Calm,Calm,-,N/A,,Clear,0,2012-11-16 14:15:00
8:35 AM,32.0,28.4,87,30.45,10.0,Calm,Calm,-,N/A,,Clear,0,2012-11-16 14:35:00
8:55 AM,33.3,29.5,86,30.45,10.0,Calm,Calm,-,N/A,,Clear,0,2012-11-16 14:55:00
9:15 AM,35.8,30.7,82,30.46,10.0,Calm,Calm,-,N/A,,Clear,0,2012-11-16 15:15:00
9:35 AM,38.1,31.6,77,30.46,10.0,Calm,Calm,-,N/A,,Clear,0,2012-11-16 15:35:00
9:55 AM,39.4,31.8,74,30.46,10.0,Calm,Calm,-,N/A,,Clear,0,2012-11-16 15:55:00
10:15 AM,40.6,32.2,72,30.46,10.0,Calm,Calm,-,N/A,,Clear,0,2012-11-16 16:15:00
10:35 AM,42.3,32.9,69,30.46,10.0,Calm,Calm,-,N/A,,Clear,0,2012-11-16 16:35:00
10:55 AM,43.7,33.3,67,30.46,10.0,Calm,Calm,-,N/A,,Clear,0,2012-11-16 16:55:00
11:15 AM,46.0,34.0,63,30.45,10.0,Calm,Calm,-,N/A,,Clear,0,2012-11-16 17:15:00
11:35 AM,47.7,33.8,59,30.44,10.0,Calm,Calm,-,N/A,,Clear,0,2012-11-16 17:35:00
11:55 AM,49.6,34.5,56,30.43,10.0,Calm,Calm,-,N/A,,Clear,0,2012-11-16 17:55:00
12:15 PM,50.9,34.5,54,30.42,10.0,Calm,Calm,-,N/A,,Clear,0,2012-11-16 18:15:00
12:35 PM,52.2,34.7,51,30.41,10.0,South,4.6,-,N/A,,Clear,170,2012-11-16 18:35:00
12:55 PM,52.9,35.2,51,30.41,10.0,Calm,Calm,-,N/A,,Clear,0,2012-11-16 18:55:00
1:15 PM,53.8,35.4,50,30.40,10.0,South,4.6,-,N/A,,Clear,170,2012-11-16 19:15:00
1:35 PM,55.0,35.2,47,30.39,10.0,SE,10.4,-,N/A,,Clear,140,2012-11-16 19:35:00
1:55 PM,55.6,34.5,45,30.38,10.0,SSE,5.8,-,N/A,,Clear,160,2012-11-16 19:55:00
2:15 PM,56.1,34.2,44,30.37,10.0,SSE,8.1,-,N/A,,Clear,160,2012-11-16 20:15:00
2:35 PM,56.5,34.5,44,30.36,10.0,SSE,10.4,-,N/A,,Clear,150,2012-11-16 20:35:00
2:55 PM,56.7,34.5,43,30.35,10.0,SSE,8.1,-,N/A,,Clear,160,2012-11-16 20:55:00
3:15 PM,56.7,33.6,42,30.34,10.0,SE,4.6,-,N/A,,Clear,130,2012-11-16 21:15:00
3:35 PM,56.3,33.8,43,30.34,10.0,SE,9.2,-,N/A,,Clear,140,2012-11-16 21:35:00
3:55 PM,55.8,34.0,44,30.34,10.0,SE,9.2,-,N/A,,Clear,140,2012-11-16 21:55:00
4:15 PM,54.9,34.0,45,30.34,10.0,SE,8.1,-,N/A,,Clear,140,2012-11-16 22:15:00
4:35 PM,53.8,34.7,48,30.33,10.0,SE,8.1,-,N/A,,Clear,140,2012-11-16 22:35:00
4:55 PM,52.5,34.9,51,30.33,10.0,SE,9.2,-,N/A,,Clear,140,2012-11-16 22:55:00
5:15 PM,50.9,34.9,54,30.33,10.0,SE,6.9,-,N/A,,Clear,140,2012-11-16 23:15:00
5:35 PM,46.8,34.5,62,30.33,10.0,Calm,Calm,-,N/A,,Clear,0,2012-11-16 23:35:00
5:55 PM,45.9,34.7,65,30.33,10.0,South,5.8,-,N/A,,Clear,170,2012-11-16 23:55:00
6:15 PM,45.7,34.7,65,30.33,10.0,SSE,6.9,-,N/A,,Clear,160,2012-11-17 00:15:00
6:35 PM,43.2,34.3,71,30.33,10.0,Calm,Calm,-,N/A,,Clear,0,2012-11-17 00:35:00
6:55 PM,43.3,34.3,71,30.33,10.0,Calm,Calm,-,N/A,,Clear,0,2012-11-17 00:55:00
7:15 PM,43.0,34.2,71,30.33,10.0,Calm,Calm,-,N/A,,Clear,0,2012-11-17 01:15:00
7:55 PM,41.9,33.6,72,30.33,10.0,South,9.2,-,N/A,,Clear,170,2012-11-17 01:55:00
8:15 PM,41.4,33.3,73,30.32,10.0,SSE,3.5,-,N/A,,Clear,160,2012-11-17 02:15:00
8:35 PM,43.5,34.0,69,30.31,10.0,SSE,9.2,-,N/A,,Clear,160,2012-11-17 02:35:00
8:55 PM,40.8,33.1,74,30.32,10.0,South,8.1,-,N/A,,Clear,170,2012-11-17 02:55:00
9:15 PM,42.3,33.8,72,30.32,10.0,South,10.4,-,N/A,,Clear,170,2012-11-17 03:15:00
9:35 PM,41.9,34.0,73,30.32,10.0,South,10.4,-,N/A,,Clear,170,2012-11-17 03:35:00
9:55 PM,42.1,34.0,73,30.31,10.0,South,10.4,-,N/A,,Clear,170,2012-11-17 03:55:00
10:15 PM,43.0,34.3,72,30.31,10.0,South,9.2,-,N/A,,Clear,170,2012-11-17 04:15:00
10:35 PM,42.1,34.3,74,30.31,10.0,South,8.1,-,N/A,,Clear,170,2012-11-17 04:35:00
10:55 PM,41.0,34.0,76,30.31,10.0,South,8.1,-,N/A,,Clear,180,2012-11-17 04:55:00
11:15 PM,40.1,33.4,77,30.31,10.0,Calm,Calm,-,N/A,,Clear,0,2012-11-17 05:15:00
11:35 PM,41.2,34.0,76,30.32,10.0,Calm,Calm,-,N/A,,Clear,0,2012-11-17 05:35:00
11:55 PM,41.2,34.0,76,30.32,10.0,South,10.4,-,N/A,,Clear,170,2012-11-17 05:55:00